Погода в Тростянце

Украина / Винницкая область     48°21′28″N   28°13′54″E
темп.,
°C
ветер,
м/с
пор.,
м/с
влажн.,
%
обл.,
%
осадки,
мм/ч
давл.,
гПа
погр.,
м
21 апреля, ср
ср2100:00+7сз117857 0.0 101110
03:00+6з118051 0.0 101210
06:00+6з1182100 0.0 101210
09:00+10зсз236850 0.0 1014437
12:00+13з355437 0.2 10141564
15:00+15з4542100 0.5 10132225
18:00+14з1155100 0.0 101456
21:00+10ююз33665 0.0 101541
22 апреля, чт
чт2200:00+9ююз22655 0.0 101610
03:00+8ю227014 0.0 101610
06:00+7ююз22775 0.0 101610
09:00+12юз356255 0.0 1017350
12:00+16ююз45475 0.0 10171324
15:00+18ююз554017 0.0 10162250
18:00+17ююз464495 0.0 10142321
21:00+12юз226028 0.2 101512
23 апреля, пт
пт2300:00+10в118784 2.4 101513
03:00+8зюз11875 3.0 101510
06:00+7зсз479532 0.0 1016271
09:00+8ссз5682100 0.0 1017619
12:00+4ссз5795100 3.1 1019510
15:00+7ссз247467 3.9 1019865
18:00+10зсз345842 0.1 10171209
21:00+7зсз3773100 0.6 1019165
24 апреля, сб
сб2400:00+6з3678100 0.1 1020183
03:00+4з4108517 0.2 1020356
06:00+3зсз49874 0.0 1021297
09:00+6сз58654 0.0 1022874
12:00+10зсз6845100 0.0 10212375
15:00+10зсз7943100 0.0 10212302
18:00+10зсз71043100 0.0 10202075
21:00+6зсз3455100 0.0 102182
25 апреля, вс
вс2500:00+5зюз116099 0.0 102110
03:00+3зюз11620 0.0 102110
06:00+2ююз11650 0.0 101910
09:00+7юз45635 0.0 1019624
12:00+10юз3550100 0.1 10181691
15:00+8ссз666845 0.9 1017809
18:00+7ссз6764100 0.0 10181013
21:00+6ссз386199 0.0 1018280